Weather Roundup
Issued by NWS Springfield, MO

Home | Current Version | Previous Version | Text Only | Print | Product List | Glossary On
Versions: 1 2 3 4 5 6 7 8 9 10 11 12 13 14 15 16 17 18 19 20 21 22 23 24 25 26 27 28 29 30 31 32 33 34 35 36 37 38 39 40 41 42 43 44 45 46 47 48 49 50
000
NZUS99 KSGF 260607
HRRSGF

HOURLY WEATHER
NATIONAL WEATHER SERVICE SPRINGFIELD MO
100 AM CDT SUN OCT 26 2014

......SGF CWA......

CITY           SKY/WX    TMP DP  RH WIND       PRES   REMARKS
SPRINGFIELD    CLEAR     60  58  92 S5        30.01S FOG
6HR MIN TEMP:  60; 6HR MAX TEMP:  69;

JOPLIN         CLEAR     65  62  90 S9        29.99F
6HR MIN TEMP:  63; 6HR MAX TEMP:  73;

WEST PLAINS    CLEAR     60  57  89 CALM      30.02F
6HR MIN TEMP:  59; 6HR MAX TEMP:  70;

ROLLA          CLEAR     60  55  83 E6        30.00F
6HR MIN TEMP:  57; 6HR MAX TEMP:  62;

OSAGE BEACH    CLEAR     55  54  94 CALM      30.00F
BRANSON        CLEAR     64  61  88 S3        30.03S

......SURROUNDING SGF CWA......

CITY           SKY/WX    TMP DP  RH WIND       PRES   REMARKS
CHANUTE        CLEAR     63  61  93 SE7       29.96F
PARSONS        CLEAR     67  63  87 CALM      29.97F
COFFEYVILLE    CLEAR     64  61  90 S5        29.95F
EMPORIA        CLEAR     64  61  90 S7        29.95S
GROVE OK       CLEAR     61  61 100 CALM      30.00S FOG
ROGERS AR      CLEAR     63  59  87 S7        30.03F
SILOAM SPRINGS CLEAR     63  55  77 S5        30.03F
HARRISON AR    CLEAR     65  61  87 SW5       30.03F
NEAR YELLVILLE MOCLDY    57  54  88 CALM      30.01S

......KANSAS AND MISSOURI......

CITY           SKY/WX    TMP DP  RH WIND       PRES   REMARKS
KANSAS CTY INT CLEAR     63  49  60 E8        29.99F
DOWNTOWN KC    CLEAR     62  50  64 NE3       29.99S
COLUMBIA       CLEAR     60  48  64 E7        30.02S
SEDALIA        CLEAR     62  54  74 E3        30.02S
ST JOSEPH      CLEAR     61  47  59 E6        29.99F
ST LOUIS       CLEAR     58  51  78 CALM      30.03S
SPIRIT OF STL  CLEAR     50  48  93 CALM      30.02S FOG
KIRKSVILLE     CLEAR     51  41  68 NE6       30.04F
WICHITA        CLEAR     63  57  81 S5        29.93F
TOPEKA         CLEAR     62  58  86 CALM      29.97F
OLATHE         CLEAR     63  56  78 SE6       29.99S

......TENNESSEE......

CITY           SKY/WX    TMP DP  RH WIND       PRES   REMARKS
MEMPHIS        CLEAR     65  62  90 SW3       30.02S
NASHVILLE      CLEAR     58  57  97 S5        30.02S FOG

......ARKANSAS.......

CITY           SKY/WX    TMP DP  RH WIND       PRES   REMARKS
FAYETTEVILLE   CLEAR     56  56 100 S5        30.03F FOG
FT SMITH       CLEAR     64  62  93 NE3       30.01F FOG
LITTLE ROCK    CLEAR     65  62  90 CALM      30.02F

......OKLAHOMA.......

CITY           SKY/WX    TMP DP  RH WIND       PRES   REMARKS
TULSA          CLEAR     70  63  78 S7        29.96F
PONCA CITY     CLEAR     70  57  63 S6        29.93F
MCALESTER      CLEAR     71  62  73 S6        30.01F
OKLAHOMA CITY  CLEAR     65  57  75 S9        29.98F

......IOWA............

CITY           SKY/WX    TMP DP  RH WIND       PRES   REMARKS
DES MOINES     CLEAR     55  36  48 E5        30.05F
QUAD CITIES    CLEAR     44  37  76 W5        30.04S

......ILLINOIS........

CITY           SKY/WX    TMP DP  RH WIND       PRES   REMARKS
QUINCY         CLEAR     51  39  63 NE8       30.04F
CHICAGO        CLEAR     49  30  48 W8        29.97S




USA.gov is the U.S. government's official web portal to all federal, state and local government web resources and services.